TimeCDT,TemperatureF,Dew PointF,Humidity,Sea Level PressureIn,VisibilityMPH,Wind Direction,Wind SpeedMPH,Gust SpeedMPH,PrecipitationIn,Events,Conditions,WindDirDegrees,DateUTC
12:53 AM,43.0,30.0,60,30.38,10.0,East,5.8,-,N/A,,Clear,80,2013-03-27 05:53:00
1:53 AM,43.0,30.0,60,30.39,10.0,East,5.8,-,N/A,,Clear,80,2013-03-27 06:53:00
2:53 AM,41.0,30.0,65,30.38,10.0,East,4.6,-,N/A,,Clear,90,2013-03-27 07:53:00
3:53 AM,39.9,28.9,65,30.38,10.0,East,4.6,-,N/A,,Clear,90,2013-03-27 08:53:00
4:53 AM,39.9,30.0,68,30.38,10.0,ENE,4.6,-,N/A,,Clear,70,2013-03-27 09:53:00
5:53 AM,39.0,30.0,70,30.38,10.0,ENE,4.6,-,N/A,,Clear,70,2013-03-27 10:53:00
6:53 AM,39.0,30.0,70,30.41,10.0,ENE,4.6,-,N/A,,Clear,70,2013-03-27 11:53:00
7:53 AM,42.1,33.1,70,30.43,10.0,East,5.8,-,N/A,,Clear,100,2013-03-27 12:53:00
8:53 AM,48.0,33.1,56,30.45,10.0,East,8.1,-,N/A,,Clear,100,2013-03-27 13:53:00
9:53 AM,53.1,28.9,40,30.46,10.0,East,6.9,-,N/A,,Clear,90,2013-03-27 14:53:00
10:53 AM,55.9,26.1,32,30.45,10.0,Calm,Calm,-,N/A,,Clear,0,2013-03-27 15:53:00
11:53 AM,59.0,27.0,29,30.44,10.0,NNE,5.8,-,N/A,,Clear,30,2013-03-27 16:53:00
12:53 PM,61.0,27.0,27,30.42,10.0,NE,8.1,-,N/A,,Clear,40,2013-03-27 17:53:00
1:53 PM,61.0,26.1,26,30.39,10.0,NNW,5.8,-,N/A,,Clear,340,2013-03-27 18:53:00
2:53 PM,64.0,27.0,25,30.35,10.0,Variable,3.5,-,N/A,,Clear,0,2013-03-27 19:53:00
3:53 PM,64.0,26.1,24,30.32,10.0,Variable,5.8,-,N/A,,Clear,0,2013-03-27 20:53:00
4:53 PM,64.9,26.1,23,30.32,10.0,Calm,Calm,-,N/A,,Clear,0,2013-03-27 21:53:00
5:53 PM,62.1,33.1,34,30.31,10.0,South,8.1,-,N/A,,Clear,180,2013-03-27 22:53:00
6:53 PM,59.0,34.0,39,30.29,10.0,SSE,8.1,-,N/A,,Clear,160,2013-03-27 23:53:00
7:53 PM,53.1,37.9,57,30.29,10.0,SSW,6.9,-,N/A,,Clear,200,2013-03-28 00:53:00
8:53 PM,51.1,37.9,61,30.30,10.0,SSW,3.5,-,N/A,,Clear,210,2013-03-28 01:53:00
9:53 PM,48.0,37.9,68,30.32,10.0,Calm,Calm,-,N/A,,Clear,0,2013-03-28 02:53:00
10:53 PM,48.9,39.0,69,30.33,10.0,Calm,Calm,-,N/A,,Clear,0,2013-03-28 03:53:00
11:53 PM,46.9,37.9,71,30.33,10.0,SE,3.5,-,N/A,,Clear,130,2013-03-28 04:53:00